CW2399 Weather Reports


Display with metric or nautical units.
time (UTC)temp
F
wind
direction
speed
MPH
gust
MPH
rain 1hr
in
rain 24hr
in
rain mn
in
humidity
%
barometer
mb
20260508213901 78 269 3.0 15.0 0.00 0.00 0.00 18 1008.8
20260508213401 78 280 3.0 12.0 0.00 0.00 0.00 16 1008.8
20260508212901 78 268 6.0 12.0 0.00 0.00 0.00 18 1008.8
20260508212401 78 262 7.0 16.0 0.00 0.00 0.00 17 1009.0
20260508211401 78 288 2.0 10.0 0.00 0.00 0.00 18 1009.0
20260508210901 77 254 3.0 12.0 0.00 0.00 0.00 18 1009.0
20260508210401 77 248 1.0 9.0 0.00 0.00 0.00 19 1009.1
20260508205901 77 322 1.0 7.0 0.00 0.00 0.00 18 1009.2
20260508204901 77 268 5.0 14.0 0.00 0.00 0.00 17 1009.2
20260508204401 77 240 1.0 16.0 0.00 0.00 0.00 19 1009.3
20260508203901 77 291 1.0 9.0 0.00 0.00 0.00 19 1009.4
20260508202402 76 351 3.0 12.0 0.00 0.00 0.00 18 1009.6
20260508201902 77 314 2.0 12.0 0.00 0.00 0.00 18 1009.6
20260508201401 77 286 6.0 13.0 0.00 0.00 0.00 18 1009.6
20260508200901 77 303 3.0 8.0 0.00 0.00 0.00 20 1009.6
20260508200401 76 274 5.0 10.0 0.00 0.00 0.00 19 1009.7
20260508194901 76 238 2.0 14.0 0.00 0.00 0.00 20 1009.7
20260508193401 74 343 1.0 12.0 0.00 0.00 0.00 20 1010.0
20260508192901 74 263 4.0 13.0 0.00 0.00 0.00 20 1010.1
20260508192402 74 314 2.0 10.0 0.00 0.00 0.00 20 1010.1
20260508191901 73 24 3.0 7.0 0.00 0.00 0.00 20 1010.1
20260508191402 74 340 5.0 12.0 0.00 0.00 0.00 19 1010.2
20260508190401 75 312 5.0 15.0 0.00 0.00 0.00 20 1010.3
20260508185901 74 323 2.0 12.0 0.00 0.00 0.00 20 1010.3
20260508185402 74 252 2.0 12.0 0.00 0.00 0.00 20 1010.4
20260508184901 73 335 3.0 9.0 0.00 0.00 0.00 21 1010.5
20260508184405 74 317 2.0 8.0 0.00 0.00 0.00 19 1010.4
20260508183408 75 309 4.0 12.0 0.00 0.00 0.00 19 1010.5
20260508182902 76 291 3.0 9.0 0.00 0.00 0.00 20 1010.5
20260508182402 76 253 2.0 9.0 0.00 0.00 0.00 21 1010.5
20260508181402 75 255 3.0 9.0 0.00 0.00 0.00 20 1010.8
20260508180901 74 237 5.0 9.0 0.00 0.00 0.00 22 1010.8
20260508180402 74 230 2.0 10.0 0.00 0.00 0.00 22 1011.0
20260508174402 74 235 3.0 8.0 0.00 0.00 0.00 20 1011.2
20260508173901 73 223 1.0 6.0 0.00 0.00 0.00 20 1011.2
20260508172402 71 45 0.0 1.0 0.00 0.00 0.00 22 1011.1
20260508171902 72 328 1.0 8.0 0.00 0.00 0.00 22 1011.2
20260508171402 72 252 1.0 5.0 0.00 0.00 0.00 22 1011.1
20260508170902 72 272 0.0 2.0 0.00 0.00 0.00 23 1011.2
20260508170401 71 232 1.0 3.0 0.00 0.00 0.00 24 1011.3
20260508165901 72 247 1.0 7.0 0.00 0.00 0.00 25 1011.2
20260508165403 71 265 1.0 3.0 0.00 0.00 0.00 26 1011.3
20260508164901 70 275 0.0 2.0 0.00 0.00 0.00 26 1011.3
20260508164402 70 256 1.0 3.0 0.00 0.00 0.00 28 1011.3
20260508163902 69 244 1.0 3.0 0.00 0.00 0.00 29 1011.3
20260508162902 69 221 1.0 6.0 0.00 0.00 0.00 31 1011.3
20260508162402 69 241 0.0 3.0 0.00 0.00 0.00 30 1011.4
20260508161402 67 238 0.0 0.0 0.00 0.00 0.00 32 1011.5
20260508160901 66 238 1.0 5.0 0.00 0.00 0.00 34 1011.5
20260508160408 64 254 0.0 0.0 0.00 0.00 0.00 36 1011.5
20260508155902 64 301 0.0 0.0 0.00 0.00 0.00 35 1011.5
20260508155402 63 319 0.0 0.0 0.00 0.00 0.00 37 1011.5
20260508154902 63 319 0.0 0.0 0.00 0.00 0.00 37 1011.6
20260508153402 62 279 0.0 0.0 0.00 0.00 0.00 38 1011.5
20260508152902 61 280 0.0 0.0 0.00 0.00 0.00 40 1011.5
20260508152402 61 281 0.0 0.0 0.00 0.00 0.00 39 1011.6
20260508151902 61 281 0.0 0.0 0.00 0.00 0.00 40 1011.6
20260508151402 60 352 0.0 0.0 0.00 0.00 0.00 42 1011.6
20260508150402 60 47 0.0 0.0 0.00 0.00 0.00 45 1011.5
20260508145902 59 47 0.0 0.0 0.00 0.00 0.00 45 1011.6
20260508145402 59 95 0.0 0.0 0.00 0.00 0.00 47 1011.6
20260508144402 58 95 0.0 0.0 0.00 0.00 0.00 49 1011.6
20260508143402 57 95 0.0 0.0 0.00 0.00 0.00 53 1011.7
20260508142903 55 95 0.0 0.0 0.00 0.00 0.00 54 1011.7
20260508142402 55 95 0.0 0.0 0.00 0.00 0.00 55 1011.8
20260508141902 55 95 0.0 0.0 0.00 0.00 0.00 57 1011.8
20260508141402 53 95 0.0 0.0 0.00 0.00 0.00 51 1011.9
20260508140902 53 95 0.0 0.0 0.00 0.00 0.00 52 1011.9
20260508140402 52 95 0.0 0.0 0.00 0.00 0.00 51 1011.8
20260508135902 51 95 0.0 0.0 0.00 0.00 0.00 54 1011.8
20260508135402 51 95 0.0 0.0 0.00 0.00 0.00 56 1011.8
20260508134902 50 95 0.0 0.0 0.00 0.00 0.00 59 1011.7
20260508134403 49 95 0.0 0.0 0.00 0.00 0.00 62 1011.7
20260508133902 48 95 0.0 0.0 0.00 0.00 0.00 62 1011.6
20260508133403 48 95 0.0 0.0 0.00 0.00 0.00 61 1011.6
20260508132902 48 95 0.0 0.0 0.00 0.00 0.00 60 1011.5
20260508132402 48 95 0.0 1.0 0.00 0.00 0.00 59 1011.5
20260508131903 48 94 0.0 0.0 0.00 0.00 0.00 57 1011.5
20260508131403 48 94 0.0 0.0 0.00 0.00 0.00 57 1011.5
20260508130402 47 94 0.0 0.0 0.00 0.00 0.00 59 1011.4
20260508125402 46 94 0.0 0.0 0.00 0.00 0.00 60 1011.4
20260508124902 47 94 0.0 0.0 0.00 0.00 0.00 60 1011.3
20260508124403 47 94 0.0 0.0 0.00 0.00 0.00 60 1011.2
20260508123902 47 94 0.0 0.0 0.00 0.00 0.00 60 1011.1
20260508123402 47 94 0.0 0.0 0.00 0.00 0.00 60 1011.1
20260508122902 47 94 0.0 0.0 0.00 0.00 0.00 59 1010.9
20260508122402 47 94 0.0 0.0 0.00 0.00 0.00 60 1010.9
20260508121902 47 94 0.0 0.0 0.00 0.00 0.00 60 1010.9
20260508121402 48 94 0.0 0.0 0.00 0.00 0.00 58 1010.8
20260508120403 48 94 0.0 0.0 0.00 0.00 0.00 58 1010.8
20260508115903 48 94 0.0 0.0 0.00 0.00 0.00 58 1010.9
20260508115402 47 94 0.0 0.0 0.00 0.00 0.00 58 1010.9
20260508114902 47 94 0.0 0.0 0.00 0.00 0.00 58 1010.9
20260508114403 47 94 0.0 0.0 0.00 0.00 0.00 60 1010.9
20260508113402 47 94 0.0 0.0 0.00 0.00 0.00 57 1010.9
20260508112903 47 94 0.0 0.0 0.00 0.00 0.00 57 1010.9
20260508112402 47 94 0.0 0.0 0.00 0.00 0.00 56 1010.9
20260508111403 47 94 0.0 0.0 0.00 0.00 0.00 56 1010.9
20260508110902 47 92 0.0 0.0 0.00 0.00 0.00 57 1010.9
20260508110403 46 18 0.0 0.0 0.00 0.00 0.00 57 1011.0
20260508105902 47 18 0.0 0.0 0.00 0.00 0.00 56 1010.9
20260508105402 47 18 0.0 0.0 0.00 0.00 0.00 56 1010.9
20260508104402 47 19 0.0 0.0 0.00 0.00 0.00 56 1010.8
20260508102902 47 18 0.0 0.0 0.00 0.00 0.00 56 1010.7
20260508102403 47 18 0.0 0.0 0.00 0.00 0.00 55 1010.6
20260508101902 47 18 0.0 0.0 0.00 0.00 0.00 56 1010.6
20260508101403 47 19 0.0 0.0 0.00 0.00 0.00 56 1010.5
20260508100902 47 18 0.0 0.0 0.00 0.00 0.00 55 1010.5
20260508100403 47 18 0.0 0.0 0.00 0.00 0.00 57 1010.5
20260508095402 47 19 0.0 0.0 0.00 0.00 0.00 56 1010.6
20260508094903 47 18 0.0 0.0 0.00 0.00 0.00 57 1010.6
20260508094403 47 19 0.0 0.0 0.00 0.00 0.00 56 1010.6
20260508093902 47 18 0.0 0.0 0.00 0.00 0.00 56 1010.6
20260508093402 47 18 0.0 0.0 0.00 0.00 0.00 56 1010.5
20260508092903 48 18 0.0 0.0 0.00 0.00 0.00 55 1010.5
20260508092402 48 18 0.0 0.0 0.00 0.00 0.00 54 1010.6
20260508091903 48 18 0.0 0.0 0.00 0.00 0.00 53 1010.6
20260508091403 49 18 0.0 0.0 0.00 0.00 0.00 53 1010.6
20260508090902 49 18 0.0 0.0 0.00 0.00 0.00 52 1010.7
20260508090402 49 18 0.0 0.0 0.00 0.00 0.00 52 1010.6
20260508085903 49 18 0.0 0.0 0.00 0.00 0.00 52 1010.7
20260508085403 49 18 0.0 0.0 0.00 0.00 0.00 51 1010.8
20260508084902 50 18 0.0 0.0 0.00 0.00 0.00 50 1010.9
20260508084403 50 18 0.0 0.0 0.00 0.00 0.00 49 1010.9
20260508083903 51 19 0.0 0.0 0.00 0.00 0.00 50 1010.9
20260508083402 51 19 0.0 0.0 0.00 0.00 0.00 49 1010.9
20260508082902 51 18 0.0 0.0 0.00 0.00 0.00 49 1010.9
20260508082403 52 18 0.0 0.0 0.00 0.00 0.00 48 1010.9
20260508081903 52 18 0.0 0.0 0.00 0.00 0.00 47 1010.9
20260508081403 51 18 0.0 0.0 0.00 0.00 0.00 49 1010.8
20260508080403 50 18 0.0 0.0 0.00 0.00 0.00 53 1010.9
20260508075902 50 18 0.0 0.0 0.00 0.00 0.00 53 1010.9
20260508075403 50 18 0.0 0.0 0.00 0.00 0.00 53 1010.9
20260508074902 50 18 0.0 0.0 0.00 0.00 0.00 53 1010.8
20260508074402 50 18 0.0 0.0 0.00 0.00 0.00 53 1010.9
20260508073903 50 18 0.0 0.0 0.00 0.00 0.00 52 1010.9
20260508073402 50 18 0.0 0.0 0.00 0.00 0.00 52 1010.9
20260508072903 51 18 0.0 0.0 0.00 0.00 0.00 51 1011.0
20260508072402 51 18 0.0 0.0 0.00 0.00 0.00 50 1011.0
20260508071903 51 18 0.0 0.0 0.00 0.00 0.00 50 1011.0
20260508071403 52 18 0.0 0.0 0.00 0.00 0.00 49 1011.1
20260508070903 52 18 0.0 0.0 0.00 0.00 0.00 49 1011.1
20260508070403 52 18 0.0 0.0 0.00 0.00 0.00 49 1011.1
20260508065903 52 18 0.0 0.0 0.00 0.00 0.00 48 1011.2
20260508065403 53 18 0.0 0.0 0.00 0.00 0.00 48 1011.2
20260508064904 52 18 0.0 0.0 0.00 0.00 0.00 48 1011.1
20260508064403 53 18 0.0 0.0 0.00 0.00 0.00 48 1011.0
20260508063904 53 18 0.0 0.0 0.00 0.00 0.00 48 1011.0
20260508063403 53 18 0.0 0.0 0.00 0.00 0.00 48 1011.0
20260508060903 53 18 0.0 0.0 0.00 0.00 0.00 47 1010.9
20260508060403 53 18 0.0 0.0 0.00 0.00 0.00 47 1010.9
20260508055403 53 18 0.0 0.0 0.00 0.00 0.00 46 1011.0
20260508054903 53 18 0.0 0.0 0.00 0.00 0.00 46 1011.0
20260508054403 54 18 0.0 0.0 0.00 0.00 0.00 45 1011.0
20260508053903 54 18 0.0 0.0 0.00 0.00 0.00 44 1011.0
20260508053403 54 18 0.0 0.0 0.00 0.00 0.00 44 1011.1
20260508052403 55 18 0.0 0.0 0.00 0.00 0.00 43 1011.1
20260508051903 55 18 1.0 2.0 0.00 0.00 0.00 43 1011.0
20260508051403 55 14 0.0 0.0 0.00 0.00 0.00 43 1011.2
20260508050903 55 14 0.0 0.0 0.00 0.00 0.00 42 1011.1
20260508050403 56 13 0.0 0.0 0.00 0.00 0.00 42 1011.2
20260508045903 55 13 0.0 0.0 0.00 0.00 0.00 42 1011.2
20260508044904 55 13 0.0 0.0 0.00 0.00 0.00 42 1011.3
20260508044403 55 11 0.0 0.0 0.00 0.00 0.00 43 1011.2
20260508043904 55 11 0.0 0.0 0.00 0.00 0.00 42 1011.2
20260508043403 56 11 0.0 0.0 0.00 0.00 0.00 42 1011.3
20260508042403 56 11 0.0 0.0 0.00 0.00 0.00 41 1011.4
20260508041903 56 5 0.0 0.0 0.00 0.00 0.00 41 1011.4
20260508041404 57 355 0.0 0.0 0.00 0.00 0.00 40 1011.3
20260508040903 57 355 0.0 0.0 0.00 0.00 0.00 40 1011.3
20260508035903 58 355 0.0 0.0 0.00 0.00 0.00 40 1011.3
20260508034403 60 107 0.0 0.0 0.00 0.00 0.00 35 1010.9
20260508033903 60 107 0.0 0.0 0.00 0.00 0.00 35 1010.9
20260508033404 60 107 0.0 0.0 0.00 0.00 0.00 35 1010.8
20260508032903 60 107 0.0 0.0 0.00 0.00 0.00 35 1010.8
20260508031404 61 114 1.0 5.0 0.00 0.00 0.00 35 1010.6
20260508030903 62 257 0.0 0.0 0.00 0.00 0.00 36 1010.6
20260508030403 63 257 0.0 0.0 0.00 0.00 0.00 34 1010.7
20260508025903 64 257 0.0 0.0 0.00 0.00 0.00 32 1010.7
20260508025404 64 257 0.0 0.0 0.00 0.00 0.00 30 1010.6
20260508024904 65 257 0.0 0.0 0.00 0.00 0.00 31 1010.7
20260508024403 65 257 0.0 0.0 0.00 0.00 0.00 30 1010.6
20260508023903 66 257 0.0 0.0 0.00 0.00 0.00 28 1010.6
20260508022903 66 257 0.0 0.0 0.00 0.00 0.00 28 1010.6
20260508022403 67 257 0.0 0.0 0.00 0.00 0.00 28 1010.6
20260508020903 68 257 0.0 0.0 0.00 0.00 0.00 27 1010.5
20260508020403 68 257 0.0 0.0 0.00 0.00 0.00 27 1010.4
20260508015903 69 257 0.0 0.0 0.00 0.00 0.00 26 1010.4
20260508015407 69 257 1.0 5.0 0.00 0.00 0.00 25 1010.4
20260508014903 70 259 0.0 0.0 0.00 0.00 0.00 25 1010.4
20260508014403 70 259 0.0 0.0 0.00 0.00 0.00 26 1010.4
20260508013403 70 255 2.0 6.0 0.00 0.00 0.00 24 1010.6
20260508012904 71 272 2.0 7.0 0.00 0.00 0.00 24 1010.7
20260508012404 71 262 0.0 7.0 0.00 0.00 0.00 23 1010.8
20260508011404 71 344 0.0 0.0 0.00 0.00 0.00 21 1010.8
20260508010903 71 344 0.0 0.0 0.00 0.00 0.00 22 1010.9
20260508010404 71 343 0.0 3.0 0.00 0.00 0.00 22 1011.1
20260508005404 71 267 0.0 5.0 0.00 0.00 0.00 24 1011.2
20260508004903 72 298 1.0 3.0 0.00 0.00 0.00 22 1011.2
20260508004404 72 251 2.0 10.0 0.00 0.00 0.00 23 1011.2
20260508003904 73 293 2.0 9.0 0.00 0.00 0.00 23 1011.2
20260508003403 73 306 3.0 13.0 0.00 0.00 0.00 22 1011.2
20260508002904 73 295 5.0 13.0 0.00 0.00 0.00 22 1011.3
20260508002404 73 243 3.0 8.0 0.00 0.00 0.00 21 1011.3
20260508001901 73 247 1.0 7.0 0.00 0.00 0.00 22 1011.3
20260508001401 72 288 1.0 6.0 0.00 0.00 0.00 24 1011.3
20260508000401 72 292 0.0 6.0 0.00 0.00 0.00 23 1011.5
20260507235901 72 291 0.0 0.0 0.00 0.00 0.00 22 1011.6
20260507235400 72 314 1.0 5.0 0.00 0.00 0.00 22 1011.5
20260507234402 73 299 4.0 8.0 0.00 0.00 0.00 21 1011.5
20260507233901 74 308 2.0 10.0 0.00 0.00 0.00 20 1011.5
20260507232901 73 291 1.0 17.0 0.00 0.00 0.00 23 1011.7
20260507232401 72 255 2.0 10.0 0.00 0.00 0.00 20 1011.7
20260507231901 72 257 6.0 12.0 0.00 0.00 0.00 20 1011.7
20260507231401 73 247 3.0 14.0 0.00 0.00 0.00 20 1011.8
20260507230901 73 255 2.0 20.0 0.00 0.00 0.00 20 1011.8
20260507230401 73 256 10.0 20.0 0.00 0.00 0.00 19 1011.9
20260507225901 74 233 9.0 17.0 0.00 0.00 0.00 19 1011.9
20260507225401 74 256 5.0 15.0 0.00 0.00 0.00 19 1012.0
20260507224901 74 269 6.0 16.0 0.00 0.00 0.00 20 1011.9
20260507224401 74 287 7.0 16.0 0.00 0.00 0.00 20 1012.0
20260507223901 74 242 7.0 15.0 0.00 0.00 0.00 22 1012.1
20260507223401 74 296 4.0 12.0 0.00 0.00 0.00 21 1012.2
20260507222901 73 258 7.0 15.0 0.00 0.00 0.00 21 1012.3
20260507222401 72 19 0.0 3.0 0.00 0.00 0.00 22 1012.3
20260507221902 73 0 1.0 3.0 0.00 0.00 0.00 21 1012.4
20260507221402 72 316 1.0 6.0 0.00 0.00 0.00 22 1012.6
20260507220901 71 355 1.0 9.0 0.00 0.00 0.00 22 1012.6
20260507220401 72 329 3.0 8.0 0.00 0.00 0.00 21 1012.6
20260507215901 72 302 1.0 8.0 0.00 0.00 0.00 23 1012.7
20260507215402 70 286 2.0 6.0 0.00 0.00 0.00 23 1012.8
20260507214901 71 259 2.0 7.0 0.00 0.00 0.00 24 1012.8
20260507214401 71 282 4.0 12.0 0.00 0.00 0.00 23 1012.9